FW9014 Weather Reports


Display with metric or nautical units.
time (UTC)temp
F
wind
direction
speed
MPH
gust
MPH
rain 1hr
in
rain 24hr
in
rain mn
in
humidity
%
barometer
mb
20260504034556 67 180 12.0 17.0 0.00 0.01 0.01 68 1018.6
20260504033045 68 192 13.0 19.0 0.00 0.01 0.01 70 1018.6
20260504031546 68 187 11.0 17.0 0.00 0.01 0.01 73 1018.5
20260504030044 69 177 12.0 18.0 0.00 0.01 0.01 68 1018.3
20260504024555 69 169 11.0 17.0 0.00 0.02 0.01 68 1018.4
20260504023049 70 175 12.0 17.0 0.00 0.02 0.01 66 1018.3
20260504021552 70 190 13.0 17.0 0.00 0.02 0.01 63 1018.1
20260504020049 71 193 12.0 16.0 0.00 0.02 0.01 62 1018.0
20260504014546 72 187 13.0 18.0 0.00 0.02 0.01 64 1018.1
20260504013101 72 201 14.0 18.0 0.00 0.02 0.01 60 1017.8
20260504011548 73 201 15.0 20.0 0.00 0.02 0.01 58 1017.9
20260504010047 75 210 15.0 19.0 0.00 0.02 0.01 58 1017.8
20260504004548 75 205 10.0 13.0 0.00 0.02 0.01 54 1017.8
20260504003054 76 201 10.0 14.0 0.00 0.02 0.01 52 1017.8
20260504001548 76 193 10.0 14.0 0.00 0.02 0.01 49 1018.0
20260504000053 76 194 10.0 15.0 0.00 0.02 0.01 50 1018.1
20260503234548 77 196 11.0 14.0 0.00 0.02 0.01 49 1018.0
20260503233053 77 190 10.0 15.0 0.00 0.02 0.01 44 1017.9
20260503231548 78 209 9.0 12.0 0.00 0.02 0.01 47 1017.9
20260503230052 78 189 5.0 8.0 0.00 0.02 0.01 46 1018.0
20260503224559 78 182 7.0 10.0 0.00 0.02 0.01 40 1018.2
20260503223045 80 212 4.0 7.0 0.00 0.02 0.01 40 1018.4
20260503221556 80 216 3.0 7.0 0.00 0.02 0.01 39 1018.6
20260503220052 80 202 4.0 6.0 0.00 0.02 0.01 38 1018.5
20260503214547 79 208 3.0 6.0 0.00 0.02 0.01 38 1018.9
20260503213046 80 264 1.0 4.0 0.00 0.02 0.01 37 1019.1
20260503211549 79 0 1.0 4.0 0.00 0.02 0.01 36 1019.3
20260503210044 80 289 0.0 3.0 0.00 0.02 0.01 35 1019.6
20260503204551 80 252 1.0 4.0 0.00 0.02 0.01 33 1019.8
20260503203047 81 233 1.0 5.0 0.00 0.02 0.01 33 1020.1
20260503201549 80 0 0.0 3.0 0.00 0.02 0.01 34 1020.3
20260503200048 81 0 0.0 3.0 0.00 0.02 0.01 33 1020.7
20260503194548 84 241 0.0 3.0 0.00 0.02 0.01 32 1021.0
20260503193056 87 0 0.0 0.0 0.00 0.02 0.01 32 1021.3
20260503191607 86 0 0.0 2.0 0.00 0.02 0.01 31 1021.3
20260503190050 84 0 0.0 2.0 0.00 0.02 0.01 33 1021.5
20260503184548 83 0 0.0 0.0 0.00 0.02 0.01 36 1021.5
20260503183047 83 0 0.0 0.0 0.00 0.02 0.01 38 1021.9
20260503181550 78 0 0.0 0.0 0.00 0.02 0.01 43 1022.0
20260503180056 76 0 0.0 2.0 0.00 0.02 0.01 44 1022.3
20260503174553 77 0 0.0 1.0 0.00 0.02 0.01 46 1022.5
20260503173048 78 0 0.0 2.0 0.00 0.02 0.01 43 1022.9
20260503171551 81 0 0.0 0.0 0.00 0.02 0.01 43 1023.1
20260503160107 73 196 0.0 3.0 0.01 0.02 0.01 60 1023.4
20260503081554 59 0 0.0 2.0 0.00 0.02 0.00 85 1021.0
20260503071603 58 95 2.0 4.0 0.00 0.02 0.00 83 1021.1
20260503054606 62 107 2.0 4.0 0.00 0.02 0.00 77 1021.1
20260503053042 61 97 2.0 3.0 0.00 0.02 0.00 76 1021.1
20260503051546 61 89 2.0 4.0 0.00 0.02 0.00 76 1021.1
20260503050049 62 106 1.0 4.0 0.00 0.02 0.00 75 1021.0
20260503044547 62 0 0.0 2.0 0.00 0.02 0.02 71 1020.9
20260503043053 62 0 0.0 2.0 0.00 0.02 0.02 70 1020.9
20260503041547 62 0 0.0 2.0 0.00 0.02 0.02 70 1021.0
20260503040055 63 0 0.0 2.0 0.00 0.02 0.02 70 1021.0